Regional Weather Roundup
Issued by NWS

Home | Current Version | Previous Version | Graphics & Text | Print | Product List | Glossary On
Versions: 1 2 3 4 5 6 7 8 9 10 11 12 13 14 15 16 17 18 19 20 21 22 23 24 25 26 27
000
ASUS45 KTFX 281310
RWRMT
MONTANA REGIONAL WEATHER ROUNDUP
NATIONAL WEATHER SERVICE GREAT FALLS MT
700 AM MDT WED SEP 28 2016

NOTE: "FAIR" INDICATES FEW OR NO CLOUDS BELOW 12000 FEET WITH NO
SIGNIFICANT WEATHER AND/OR OBSTRUCTIONS TO VISIBILITY.

MTZ001>007-043-281400-
WEST OF THE DIVIDE

CITY           SKY/WX    TMP DP  RH WIND       PRES   REMARKS
KALISPELL      CLEAR     55  38  52 N16       30.13F
MISSOULA       PTCLDY    47  43  86 NW5       30.14S
BUTTE          CLEAR     37  34  89 CALM      30.26S
MULLAN PASS    CLEAR     54  40  59 SE9       30.18F
ANACONDA         N/A     43  36  75 SW5       30.25S
DEER LODGE       N/A     41  37  87 CALM      30.27R
EUREKA           N/A     46  41  81 CALM      30.16S
HAMILTON         N/A     46  39  76 CALM      30.15S
LIBBY            N/A     43  41  93 CALM      30.13S
PLAINS           N/A     43  38  82 CALM      30.11R
RONAN            N/A     56  44  64 N7        30.15S
THOMPSON FALLS   N/A     43  41  93 CALM      30.14R
$$

MTZ008-052>055-281400-
SOUTHWEST MONTANA

CITY           SKY/WX    TMP DP  RH WIND       PRES   REMARKS
BOZEMAN        CLEAR     43  37  79 S3        30.27R
DILLON         CLEAR     42  35  76 SW6       30.25S
W YELLOWSTONE    N/A     28  28 100 CALM      30.36R
ENNIS          CLEAR     39  36  87 NE5       30.32S
THREE FORKS      N/A     44  23  43 CALM      30.23R
TWIN BRIDGES     N/A     42  34  73 SE1       30.21R
$$

MTZ009-010-012-014-046-048-049-054-281400-
EAST SLOPES AND CENTRAL MONTANA

CITY           SKY/WX    TMP DP  RH WIND       PRES   REMARKS
CUT BANK       PTCLDY    38  33  82 CALM      30.32S
GREAT FALLS    CLEAR     37  34  89 W5        30.31F
MALMSTROM AFB  CLEAR     39  37  92 W3        30.32S
HELENA         CLEAR     49  37  63 W9        30.28R
AUGUSTA        PTSUNNY   40  36  84 N8        30.32S
BOWMANS CRNR     N/A     41  35  79 NE6       30.30S
CHOTEAU          N/A     45  37  76 W3        30.34S
CONRAD           N/A     36  36 100 CALM      30.32S
FAIRFIELD      CLOUDY    43  37  80 NW3       30.31F
POWER            N/A     38  34  86 N9        30.31S WCI  31
RAYNESFORD       N/A     39  37  92 E2        30.31S
$$

MTZ011-013-016-021-045-047-050-051-281400-
NORTH CENTRAL MONTANA

CITY           SKY/WX    TMP DP  RH WIND       PRES   REMARKS
HAVRE          CLEAR     41  39  93 SE6       30.33R
LEWISTOWN      CLEAR     41  39  93 S3        30.31S
N BAR RANCH      N/A     43  41  93 CALM      30.33R
CHINOOK          N/A     43  41  93 CALM      30.34R
DENTON           N/A     44  40  86 E1        30.28S
GEYSER         PTSUNNY   40  36  84 N8        30.32S
GRASS RANGE      N/A     43  41  93 W5        30.28R
JUDITH GAP       N/A     42  40  90 N9G17     30.30R
ROY              N/A     44  42  90 MISG      30.30R
STANFORD         N/A     44  40  88 CALM      30.31S
WINIFRED         N/A     45  40  82 MISG      30.31R
$$

MTZ017>020-022>027-061-062-281400-
NORTHEAST MONTANA

CITY           SKY/WX    TMP DP  RH WIND       PRES   REMARKS
GLASGOW        CLEAR     48  42  80 W8        30.27R
JORDAN           N/A     48  45  89 N8        30.26R
SIDNEY         CLEAR     50  47  89 N9        30.21R
WOLF POINT     CLEAR     50  44  80 N6        30.25R
PLENTYWOOD       N/A     48  45  87 NW14G21   30.22R
POPLAR           N/A     50  45  81 N3        30.24R
SCOBEY           N/A     46  40  79 NW14      30.21S
$$

MTZ028>42-056>058-281400-
SOUTHCENTRAL AND SOUTHEAST MONTANA

CITY           SKY/WX    TMP DP  RH WIND       PRES   REMARKS
BAKER          CLEAR     47  43  86 CALM      30.21R
BILLINGS       CLEAR     52  45  77 E5        30.28R
LIVINGSTON     CLEAR     41  38  89 CALM      30.29R
MILES CITY     CLEAR     50  46  86 NW6       30.22R
BIG TIMBER     CLEAR     48  43  81 NE7       30.33R
EKALAKA          N/A     55  42  61 SE2       30.18R
FORSYTH          N/A     50  50 100 W6        30.24R
HARLOWTON        N/A     45  41  85 N6        30.29R
LAUREL           N/A     49  40  71 CALM      30.24R
ROUNDUP          N/A     49  41  74 E6        30.18R
$$

REGIONAL REPORTS...DAKOTAS

CITY           SKY/WX    TMP DP  RH WIND       PRES   REMARKS
WILLISTON      CLEAR     47  44  90 NE6       30.21R
MINOT          CLEAR     41  37  86 CALM      30.21R
DICKINSON      CLEAR     45  40  82 E3        30.18R
BEACH            N/A     46  46 100 NW5       30.24R
CROSBY           N/A     43  43 100 N8        30.23R
WATFORD CITY     N/A     45  45 100 SW3       30.20R
BISMARCK       CLOUDY    37  35  92 E3        30.23R
GRAND FORKS    CLOUDY    38  36  92 NW6       30.23R
FARGO          CLOUDY    46  42  86 N6        30.22R
BUFFALO SD       N/A     52  44  74 NW6       30.13R
RAPID CITY     CLEAR     54  40  59 NW8       30.20R
$$

REGIONAL REPORTS...WYOMING/IDAHO/WASHINGTON

CITY           SKY/WX    TMP DP  RH WIND       PRES   REMARKS
GILLETTE       CLEAR     43  41  93 S5        30.26R
SHERIDAN       CLEAR     43  39  86 NW6       30.26R
BUFFALO WY     CLEAR     56  36  47 W6        30.30R
CODY           CLEAR     47  39  74 N10       30.30R
YELLOWSTONE LA   N/A     30  30 100 NW3       30.42S
IDAHO FALLS    CLOUDY    42  38  85 N7        30.20S
SALMON         CLEAR     39  37  93 CALM      30.20R
BOISE          CLEAR     55  43  63 CALM      30.03R
SPOKANE        PTCLDY    52  40  63 NE6       30.04S
$$

REGIONAL REPORTS...ALBERTA

CITY           SKY/WX    TMP DP  RH WIND       PRES   REMARKS
EDMONTON       PTCLDY    36  28  75 SW5       30.34R
CALGARY        CLOUDY    48  34  57 SE10      30.32F
LETHBRIDGE     MOCLDY    48  39  71 N3        30.32S
MEDICINE HAT   MOCLDY    46  41  81 N5        30.33S
WATERTON GATE    N/A     36  34  93 NE6         N/A  WCI  31
MILK RIVER       N/A     34  32  93 NW6         N/A  WCI  29
ONEFOUR          N/A     39  36  87 SE3         N/A
$$

REGIONAL REPORTS...SASKATCHEWAN

CITY           SKY/WX    TMP DP  RH WIND       PRES   REMARKS
SWIFT CURRENT  CLOUDY    45  41  87 NE7       30.32S
REGINA         PTCLDY    46  43  87 N12       30.27R
SASKATOON      CLEAR     34  34 100 W2        30.36R
CYPRESS HILLS    N/A     43  36  75 NE10        N/A
VAL MARIE        N/A     46  41  81 N10         N/A
ASSINIBOIA       N/A     30  28  93 S5          N/A
$$




USA.gov is the U.S. government's official web portal to all federal, state and local government web resources and services.